QPF
0.00 0.00 0.00 0.00 0.00 0.00 0.00 0.00 0.00 0.00 0.00 0.00 0.00 0.00 0.00 0.00 0.00 0.00 0.00 0.00 0.00 0.00 0.00 0.00 0.00 0.00 0.00 0.00 0.00 0.00 0.00 0.00 0.00 0.00 0.00 0.00 0.00 0.00 0.00 0.00 0.00 0.00 0.00 0.00
0.00 0.00 0.00 0.00 0.00 0.00 0.00 0.00 0.00 0.00 0.00 0.00 0.00 0.00 0.00 0.00 0.00 0.00 0.00 0.01 0.01 0.01 0.00 0.00 0.00 0.00 0.00 0.00 0.00 0.00 0.00 0.00 0.00 0.00 0.00 0.00 0.00 0.00 0.00 0.00 0.00 0.00 0.00 0.00
0.00 0.00 0.00 0.00 0.00 0.00 0.00 0.00 0.00 0.00 0.00 0.00 0.00 0.00 0.00 0.00 0.00 0.00 0.00 0.01 0.01 0.01 0.00 0.00 0.00 0.01 0.01 0.01 0.00 0.00 0.00 0.00 0.00 0.00 0.00 0.00 0.00 0.00 0.00 0.00 0.00 0.00 0.00 0.00
0.00 0.00 0.00 0.00 0.00 0.00 0.00 0.00 0.00 0.00 0.00 0.00 0.00 0.00 0.00 0.00 0.00 0.00 0.01 0.01 0.01 0.01 0.01 0.01 0.01 0.01 0.01 0.00 0.00 0.00 0.00 0.00 0.00 0.00 0.00 0.00 0.01 0.01 0.01 0.02 0.01 0.01 0.00 0.00
0.00 0.00 0.00 0.00 0.00 0.00 0.00 0.00 0.00 0.00 0.00 0.00 0.00 0.00 0.00 0.00 0.00 0.00 0.00 0.01 0.01 0.01 0.01 0.01 0.01 0.01 0.01 0.01 0.01 0.01 0.01 0.01 0.01 0.01 0.02 0.02 0.03 0.04 0.04 0.03 0.02 0.01 0.00 0.00
0.01 0.01 0.00 0.00 0.00 0.00 0.00 0.00 0.00 0.00 0.00 0.00 0.00 0.00 0.00 0.00 0.00 0.00 0.00 0.00 0.00 0.00 0.00 0.00 0.01 0.01 0.00 0.00 0.01 0.01 0.01 0.01 0.02 0.04 0.05 0.06 0.06 0.04 0.02 0.01 0.01 0.01 0.01 0.01
0.01 0.01 0.00 0.00 0.00 0.00 0.00 0.00 0.00 0.00 0.00 0.00 0.00 0.00 0.00 0.00 0.00 0.00 0.00 0.00 0.00 0.00 0.00 0.00 0.00 0.00 0.00 0.00 0.01 0.00 0.01 0.02 0.04 0.05 0.06 0.05 0.03 0.02 0.01 0.01 0.01 0.01 0.00 0.01
0.01 0.01 0.00 0.00 0.01 0.00 0.00 0.00 0.00 0.00 0.00 0.00 0.00 0.00 0.00 0.00 0.00 0.00 0.00 0.00 0.00 0.00 0.00 0.00 0.00 0.00 0.00 0.00 0.01 0.00 0.01 0.02 0.03 0.02 0.02 0.02 0.03 0.02 0.01 0.01 0.01 0.00 0.00 0.00
0.01 0.01 0.00 0.01 0.01 0.01 0.00 0.00 0.00 0.00 0.00 0.00 0.00 0.00 0.00 0.00 0.00 0.00 0.00 0.00 0.00 0.00 0.00 0.00 0.00 0.00 0.00 0.00 0.00 0.00 0.00 0.01 0.01 0.01 0.01 0.01 0.01 0.01 0.02 0.01 0.01 0.00 0.00 0.00
0.00 0.00 0.00 0.00 0.00 0.01 0.00 0.00 0.00 0.00 0.00 0.00 0.00 0.00 0.00 0.00 0.00 0.00 0.00 0.00 0.00 0.00 0.00 0.00 0.00 0.00 0.00 0.00 0.00 0.00 0.01 0.01 0.02 0.01 0.01 0.01 0.01 0.02 0.01 0.01 0.01 0.01 0.01 0.01
0.00 0.00 0.00 0.00 0.00 0.00 0.00 0.00 0.00 0.00 0.00 0.00 0.00 0.00 0.00 0.00 0.00 0.00 0.00 0.00 0.00 0.00 0.00 0.00 0.00 0.00 0.00 0.00 0.00 0.00 0.01 0.01 0.01 0.01 0.01 0.01 0.01 0.01 0.01 0.01 0.01 0.01 0.01 0.01
0.00 0.00 0.00 0.00 0.00 0.00 0.00 0.00 0.00 0.00 0.00 0.00 0.00 0.00 0.00 0.00 0.00 0.00 0.00 0.00 0.00 0.00 0.00 0.00 0.00 0.01 0.01 0.01 0.01 0.01 0.00 0.01 0.01 0.01 0.01 0.01 0.01 0.00 0.00 0.00 0.00 0.00 0.00 0.01
0.00 0.00 0.00 0.00 0.00 0.01 0.01 0.00 0.00 0.00 0.00 0.00 0.00 0.00 0.00 0.00 0.00 0.00 0.00 0.00 0.00 0.00 0.00 0.00 0.01 0.01 0.01 0.01 0.01 0.01 0.00 0.00 0.01 0.01 0.01 0.00 0.01 0.00 0.00 0.00 0.00 0.00 0.00 0.00
0.00 0.00 0.00 0.00 0.00 0.01 0.01 0.00 0.00 0.00 0.00 0.00 0.00 0.00 0.00 0.00 0.00 0.00 0.00 0.00 0.00 0.00 0.00 0.00 0.00 0.00 0.00 0.00 0.00 0.00 0.00 0.00 0.01 0.01 0.01 0.01 0.01 0.01 0.00 0.00 0.00 0.00 0.01 0.01
0.00 0.00 0.00 0.00 0.01 0.01 0.01 0.01 0.00 0.00 0.00 0.00 0.00 0.00 0.00 0.00 0.00 0.00 0.00 0.00 0.00 0.00 0.00 0.00 0.00 0.00 0.00 0.00 0.00 0.00 0.00 0.00 0.00 0.01 0.02 0.01 0.01 0.01 0.01 0.01 0.01 0.00 0.00 0.00
0.00 0.00 0.00 0.00 0.01 0.02 0.02 0.01 0.00 0.00 0.00 0.00 0.00 0.00 0.00 0.00 0.00 0.00 0.00 0.00 0.00 0.00 0.00 0.00 0.00 0.00 0.00 0.00 0.00 0.00 0.00 0.00 0.01 0.01 0.02 0.01 0.00 0.00 0.00 0.00 0.00 0.00 0.00 0.01
0.00 0.00 0.00 0.00 0.01 0.02 0.02 0.01 0.01 0.00 0.00 0.01 0.00 0.00 0.00 0.00 0.00 0.00 0.00 0.00 0.00 0.00 0.00 0.00 0.00 0.00 0.00 0.00 0.00 0.00 0.00 0.00 0.00 0.01 0.01 0.01 0.01 0.00 0.00 0.00 0.00 0.00 0.00 0.01
0.00 0.00 0.00 0.00 0.01 0.02 0.02 0.02 0.01 0.00 0.00 0.01 0.01 0.01 0.01 0.00 0.00 0.00 0.00 0.00 0.00 0.00 0.00 0.00 0.00 0.00 0.00 0.00 0.00 0.00 0.00 0.00 0.00 0.00 0.00 0.01 0.01 0.01 0.01 0.01 0.01 0.00 0.01 0.01
0.00 0.00 0.00 0.00 0.01 0.02 0.02 0.02 0.01 0.01 0.01 0.01 0.01 0.01 0.01 0.00 0.00 0.00 0.00 0.00 0.00 0.00 0.00 0.00 0.00 0.00 0.00 0.00 0.00 0.00 0.00 0.00 0.00 0.00 0.00 0.00 0.01 0.01 0.01 0.01 0.01 0.01 0.01 0.00
0.00 0.00 0.00 0.00 0.01 0.02 0.02 0.02 0.02 0.01 0.01 0.01 0.01 0.01 0.01 0.01 0.00 0.00 0.00 0.00 0.00 0.00 0.01 0.01 0.00 0.00 0.00 0.00 0.00 0.00 0.00 0.00 0.00 0.00 0.00 0.00 0.00 0.00 0.01 0.01 0.02 0.01 0.01 0.01
0.00 0.00 0.00 0.00 0.00 0.01 0.02 0.01 0.01 0.01 0.01 0.01 0.01 0.01 0.01 0.01 0.00 0.00 0.00 0.00 0.00 0.00 0.01 0.01 0.01 0.00 0.01 0.01 0.01 0.01 0.00 0.00 0.00 0.00 0.00 0.01 0.01 0.01 0.01 0.01 0.01 0.01 0.01 0.01
0.00 0.00 0.00 0.00 0.00 0.01 0.01 0.01 0.01 0.01 0.01 0.01 0.01 0.01 0.01 0.00 0.00 0.00 0.00 0.00 0.01 0.01 0.01 0.01 0.01 0.01 0.01 0.01 0.01 0.01 0.00 0.00 0.01 0.01 0.01 0.01 0.01 0.01 0.01 0.01 0.01 0.01 0.01 0.01
0.00 0.00 0.00 0.00 0.00 0.01 0.01 0.01 0.01 0.01 0.01 0.01 0.00 0.00 0.00 0.00 0.00 0.00 0.00 0.00 0.00 0.00 0.00 0.00 0.00 0.01 0.01 0.01 0.01 0.01 0.01 0.01 0.01 0.01 0.01 0.01 0.01 0.01 0.01 0.00 0.00 0.00 0.01 0.01
0.00 0.00 0.00 0.00 0.00 0.01 0.01 0.01 0.01 0.01 0.01 0.01 0.00 0.00 0.00 0.00 0.00 0.00 0.00 0.00 0.00 0.00 0.00 0.00 0.00 0.00 0.01 0.00 0.00 0.01 0.01 0.01 0.02 0.01 0.01 0.01 0.01 0.01 0.00 0.00 0.00 0.00 0.00 0.00
0.00 0.00 0.00 0.00 0.00 0.01 0.01 0.01 0.01 0.01 0.01 0.01 0.00 0.00 0.00 0.00 0.00 0.00 0.00 0.00 0.00 0.00 0.00 0.00 0.00 0.00 0.00 0.00 0.00 0.00 0.01 0.01 0.01 0.01 0.01 0.01 0.01 0.01 0.00 0.00 0.00 0.00 0.00 0.00
0.00 0.00 0.00 0.00 0.00 0.00 0.01 0.01 0.01 0.01 0.00 0.00 0.00 0.00 0.00 0.00 0.00 0.00 0.00 0.00 0.00 0.00 0.00 0.00 0.00 0.00 0.00 0.00 0.00 0.00 0.00 0.00 0.01 0.00 0.00 0.00 0.00 0.00 0.00 0.00 0.00 0.00 0.00 0.00
0.00 0.00 0.00 0.00 0.00 0.00 0.00 0.01 0.01 0.01 0.01 0.00 0.00 0.01 0.01 0.01 0.01 0.00 0.00 0.00 0.00 0.00 0.00 0.00 0.00 0.00 0.01 0.01 0.00 0.00 0.00 0.00 0.00 0.00 0.00 0.00 0.00 0.00 0.00 0.00 0.00 0.00 0.00 0.00
MSLP
1016.80 1017.32 1017.78 1018.14 1018.39 1018.52 1018.52 1018.40 1018.17 1017.85 1017.48 1017.11 1016.78 1016.52 1016.36 1016.32 1016.40 1016.59 1016.86 1017.21 1017.59 1017.99 1018.40 1018.81 1019.22 1019.63 1020.05 1020.48 1020.94 1021.41 1021.90 1022.40 1022.89 1023.37 1023.83 1024.25 1024.64 1024.99 1025.29 1025.55 1025.77 1025.94 1026.08 1026.18
1016.80 1017.21 1017.50 1017.67 1017.72 1017.66 1017.51 1017.31 1017.06 1016.81 1016.58 1016.39 1016.26 1016.21 1016.25 1016.36 1016.56 1016.81 1017.12 1017.47 1017.85 1018.25 1018.66 1019.08 1019.52 1019.97 1020.44 1020.93 1021.43 1021.93 1022.44 1022.95 1023.45 1023.94 1024.40 1024.84 1025.26 1025.63 1025.97 1026.26 1026.51 1026.70 1026.86 1026.97
1016.94 1017.20 1017.30 1017.25 1017.08 1016.82 1016.52 1016.23 1015.97 1015.77 1015.66 1015.64 1015.70 1015.86 1016.08 1016.35 1016.66 1017.00 1017.36 1017.73 1018.12 1018.53 1018.95 1019.40 1019.87 1020.37 1020.88 1021.41 1021.94 1022.47 1022.99 1023.51 1024.01 1024.50 1024.97 1025.43 1025.86 1026.26 1026.62 1026.94 1027.21 1027.43 1027.59 1027.71
1017.14 1017.23 1017.12 1016.85 1016.47 1016.03 1015.59 1015.22 1014.95 1014.80 1014.79 1014.92 1015.16 1015.49 1015.88 1016.30 1016.72 1017.15 1017.56 1017.97 1018.39 1018.81 1019.27 1019.75 1020.26 1020.80 1021.35 1021.91 1022.47 1023.02 1023.55 1024.07 1024.56 1025.05 1025.53 1025.99 1026.44 1026.86 1027.24 1027.58 1027.87 1028.09 1028.25 1028.36
1017.24 1017.15 1016.86 1016.40 1015.85 1015.27 1014.73 1014.31 1014.04 1013.95 1014.04 1014.29 1014.68 1015.16 1015.69 1016.23 1016.76 1017.26 1017.73 1018.19 1018.64 1019.10 1019.59 1020.11 1020.66 1021.24 1021.83 1022.43 1023.00 1023.56 1024.10 1024.62 1025.11 1025.60 1026.07 1026.54 1026.99 1027.43 1027.82 1028.16 1028.45 1028.66 1028.81 1028.90
1017.08 1016.85 1016.42 1015.83 1015.17 1014.51 1013.94 1013.51 1013.27 1013.25 1013.43 1013.80 1014.31 1014.90 1015.54 1016.17 1016.78 1017.34 1017.87 1018.37 1018.87 1019.37 1019.91 1020.47 1021.06 1021.68 1022.31 1022.93 1023.53 1024.10 1024.64 1025.16 1025.65 1026.13 1026.60 1027.07 1027.52 1027.95 1028.34 1028.68 1028.94 1029.14 1029.26 1029.31
1016.56 1016.23 1015.71 1015.07 1014.38 1013.72 1013.18 1012.80 1012.64 1012.70 1012.98 1013.44 1014.04 1014.72 1015.43 1016.13 1016.79 1017.41 1017.99 1018.53 1019.07 1019.62 1020.20 1020.81 1021.44 1022.10 1022.76 1023.40 1024.02 1024.61 1025.16 1025.67 1026.17 1026.64 1027.11 1027.57 1028.01 1028.42 1028.79 1029.10 1029.34 1029.50 1029.58 1029.59
1015.62 1015.24 1014.72 1014.10 1013.46 1012.88 1012.43 1012.17 1012.11 1012.28 1012.65 1013.20 1013.87 1014.60 1015.36 1016.10 1016.80 1017.46 1018.07 1018.65 1019.23 1019.83 1020.45 1021.10 1021.78 1022.47 1023.16 1023.83 1024.47 1025.07 1025.62 1026.15 1026.64 1027.11 1027.57 1028.01 1028.43 1028.81 1029.15 1029.42 1029.62 1029.73 1029.77 1029.73
1014.32 1013.95 1013.47 1012.95 1012.43 1012.00 1011.70 1011.59 1011.67 1011.95 1012.41 1013.03 1013.75 1014.52 1015.30 1016.06 1016.78 1017.45 1018.09 1018.71 1019.33 1019.97 1020.63 1021.32 1022.04 1022.76 1023.48 1024.17 1024.83 1025.44 1026.01 1026.54 1027.04 1027.51 1027.95 1028.38 1028.77 1029.11 1029.41 1029.63 1029.78 1029.84 1029.83 1029.76
1012.79 1012.46 1012.08 1011.70 1011.35 1011.11 1010.99 1011.04 1011.27 1011.66 1012.22 1012.88 1013.63 1014.42 1015.20 1015.97 1016.69 1017.38 1018.05 1018.70 1019.35 1020.03 1020.73 1021.46 1022.21 1022.96 1023.70 1024.42 1025.09 1025.72 1026.31 1026.85 1027.35 1027.82 1028.25 1028.65 1029.01 1029.31 1029.56 1029.73 1029.83 1029.84 1029.80 1029.70
1011.20 1010.95 1010.69 1010.47 1010.31 1010.25 1010.32 1010.53 1010.89 1011.39 1012.01 1012.72 1013.48 1014.26 1015.04 1015.80 1016.53 1017.23 1017.91 1018.59 1019.29 1020.00 1020.74 1021.50 1022.27 1023.05 1023.81 1024.54 1025.24 1025.89 1026.49 1027.04 1027.56 1028.02 1028.45 1028.83 1029.16 1029.42 1029.62 1029.74 1029.79 1029.76 1029.69 1029.57
1009.77 1009.58 1009.45 1009.37 1009.38 1009.49 1009.72 1010.07 1010.54 1011.11 1011.77 1012.49 1013.25 1014.03 1014.79 1015.54 1016.28 1016.99 1017.70 1018.41 1019.14 1019.88 1020.65 1021.44 1022.23 1023.03 1023.80 1024.55 1025.26 1025.93 1026.55 1027.13 1027.65 1028.13 1028.56 1028.92 1029.23 1029.46 1029.62 1029.70 1029.71 1029.65 1029.55 1029.43
1008.59 1008.47 1008.43 1008.48 1008.63 1008.87 1009.22 1009.67 1010.21 1010.82 1011.50 1012.22 1012.96 1013.72 1014.47 1015.22 1015.96 1016.69 1017.43 1018.18 1018.93 1019.71 1020.50 1021.31 1022.11 1022.91 1023.70 1024.46 1025.18 1025.87 1026.51 1027.11 1027.66 1028.15 1028.59 1028.95 1029.24 1029.46 1029.59 1029.65 1029.63 1029.56 1029.45 1029.33
1007.72 1007.65 1007.68 1007.82 1008.06 1008.39 1008.82 1009.32 1009.89 1010.52 1011.19 1011.89 1012.62 1013.35 1014.10 1014.85 1015.61 1016.36 1017.13 1017.91 1018.70 1019.50 1020.31 1021.12 1021.93 1022.73 1023.52 1024.28 1025.02 1025.73 1026.39 1027.02 1027.60 1028.12 1028.57 1028.95 1029.25 1029.46 1029.58 1029.63 1029.60 1029.53 1029.42 1029.30
1007.10 1007.07 1007.16 1007.35 1007.64 1008.03 1008.48 1009.01 1009.58 1010.20 1010.85 1011.54 1012.24 1012.97 1013.72 1014.48 1015.25 1016.04 1016.84 1017.64 1018.46 1019.27 1020.09 1020.91 1021.71 1022.51 1023.29 1024.06 1024.80 1025.53 1026.22 1026.88 1027.49 1028.04 1028.53 1028.93 1029.25 1029.47 1029.61 1029.66 1029.64 1029.57 1029.48 1029.37
1006.62 1006.63 1006.76 1006.99 1007.31 1007.72 1008.19 1008.71 1009.27 1009.87 1010.51 1011.17 1011.87 1012.59 1013.34 1014.12 1014.92 1015.73 1016.56 1017.39 1018.23 1019.05 1019.87 1020.68 1021.48 1022.27 1023.04 1023.81 1024.56 1025.30 1026.02 1026.71 1027.36 1027.95 1028.47 1028.91 1029.26 1029.51 1029.67 1029.74 1029.74 1029.68 1029.60 1029.51
1006.16 1006.21 1006.37 1006.63 1006.98 1007.40 1007.87 1008.39 1008.94 1009.53 1010.15 1010.81 1011.50 1012.23 1013.00 1013.79 1014.62 1015.46 1016.31 1017.17 1018.01 1018.84 1019.66 1020.46 1021.25 1022.02 1022.79 1023.55 1024.31 1025.07 1025.82 1026.54 1027.22 1027.85 1028.41 1028.89 1029.27 1029.55 1029.74 1029.83 1029.85 1029.82 1029.76 1029.68
1005.61 1005.71 1005.91 1006.21 1006.58 1007.02 1007.50 1008.02 1008.57 1009.16 1009.78 1010.44 1011.15 1011.89 1012.68 1013.50 1014.35 1015.22 1016.09 1016.95 1017.81 1018.64 1019.45 1020.25 1021.02 1021.79 1022.55 1023.32 1024.09 1024.86 1025.63 1026.37 1027.09 1027.75 1028.35 1028.85 1029.26 1029.57 1029.78 1029.90 1029.95 1029.94 1029.88 1029.81
1004.93 1005.09 1005.35 1005.68 1006.09 1006.55 1007.05 1007.59 1008.16 1008.76 1009.40 1010.08 1010.80 1011.57 1012.38 1013.23 1014.10 1014.98 1015.87 1016.75 1017.61 1018.44 1019.25 1020.04 1020.82 1021.58 1022.35 1023.12 1023.90 1024.69 1025.47 1026.23 1026.97 1027.65 1028.26 1028.79 1029.21 1029.54 1029.77 1029.91 1029.97 1029.97 1029.92 1029.85
1004.15 1004.37 1004.68 1005.07 1005.52 1006.01 1006.55 1007.11 1007.71 1008.34 1009.01 1009.72 1010.47 1011.27 1012.10 1012.97 1013.85 1014.75 1015.65 1016.54 1017.41 1018.25 1019.07 1019.86 1020.64 1021.42 1022.20 1022.98 1023.77 1024.56 1025.35 1026.13 1026.86 1027.55 1028.16 1028.69 1029.11 1029.44 1029.68 1029.82 1029.88 1029.89 1029.84 1029.76
1003.35 1003.63 1003.99 1004.42 1004.91 1005.45 1006.02 1006.63 1007.27 1007.94 1008.64 1009.38 1010.16 1010.98 1011.84 1012.72 1013.62 1014.53 1015.44 1016.34 1017.22 1018.07 1018.90 1019.71 1020.51 1021.31 1022.10 1022.90 1023.70 1024.50 1025.29 1026.06 1026.79 1027.45 1028.05 1028.56 1028.97 1029.28 1029.50 1029.63 1029.69 1029.68 1029.63 1029.53
1002.63 1002.95 1003.35 1003.82 1004.35 1004.92 1005.54 1006.18 1006.86 1007.57 1008.31 1009.08 1009.89 1010.74 1011.61 1012.51 1013.42 1014.34 1015.26 1016.17 1017.06 1017.93 1018.78 1019.61 1020.44 1021.26 1022.07 1022.89 1023.70 1024.50 1025.28 1026.03 1026.73 1027.37 1027.93 1028.40 1028.78 1029.07 1029.26 1029.37 1029.41 1029.39 1029.31 1029.20
1002.08 1002.42 1002.84 1003.34 1003.89 1004.50 1005.14 1005.82 1006.54 1007.28 1008.05 1008.86 1009.69 1010.56 1011.45 1012.36 1013.28 1014.21 1015.13 1016.05 1016.96 1017.85 1018.72 1019.59 1020.44 1021.28 1022.11 1022.94 1023.75 1024.55 1025.31 1026.03 1026.70 1027.30 1027.81 1028.24 1028.58 1028.83 1028.99 1029.07 1029.08 1029.03 1028.94 1028.79
1001.74 1002.08 1002.51 1003.01 1003.58 1004.21 1004.88 1005.59 1006.33 1007.10 1007.91 1008.74 1009.60 1010.48 1011.38 1012.30 1013.23 1014.17 1015.10 1016.03 1016.95 1017.86 1018.75 1019.64 1020.51 1021.37 1022.22 1023.05 1023.86 1024.64 1025.37 1026.06 1026.69 1027.24 1027.71 1028.09 1028.38 1028.59 1028.71 1028.76 1028.74 1028.67 1028.55 1028.37
1001.60 1001.94 1002.36 1002.87 1003.44 1004.08 1004.76 1005.49 1006.26 1007.06 1007.89 1008.75 1009.62 1010.52 1011.44 1012.36 1013.30 1014.24 1015.18 1016.11 1017.04 1017.96 1018.87 1019.76 1020.65 1021.52 1022.37 1023.19 1023.98 1024.74 1025.44 1026.09 1026.68 1027.18 1027.60 1027.94 1028.19 1028.36 1028.46 1028.48 1028.43 1028.33 1028.18 1027.97
1001.62 1001.95 1002.37 1002.87 1003.45 1004.09 1004.79 1005.54 1006.33 1007.15 1008.00 1008.88 1009.78 1010.69 1011.62 1012.55 1013.49 1014.43 1015.37 1016.31 1017.23 1018.16 1019.06 1019.96 1020.84 1021.70 1022.54 1023.35 1024.11 1024.84 1025.51 1026.11 1026.65 1027.12 1027.50 1027.80 1028.02 1028.16 1028.23 1028.22 1028.16 1028.03 1027.85 1027.61
1001.73 1002.06 1002.48 1002.99 1003.57 1004.23 1004.94 1005.71 1006.52 1007.37 1008.24 1009.14 1010.05 1010.97 1011.91 1012.84 1013.79 1014.72 1015.66 1016.59 1017.51 1018.42 1019.32 1020.20 1021.07 1021.91 1022.72 1023.50 1024.23 1024.92 1025.55 1026.11 1026.61 1027.04 1027.39 1027.66 1027.85 1027.97 1028.01 1027.99 1027.90 1027.75 1027.54 1027.26
Thickness
5688 5695 5695 5695 5695 5692 5686 5683 5677 5686 5691 5706 5715 5718 5721 5722 5722 5720 5718 5717 5716 5713 5711 5710 5707 5706 5704 5702 5699 5697 5693 5690 5688 5686 5685 5683 5681 5679 5678 5677 5676 5674 5673 5672
5685 5693 5693 5693 5697 5695 5693 5693 5691 5693 5699 5717 5720 5720 5721 5722 5721 5720 5720 5719 5717 5715 5713 5710 5708 5706 5703 5701 5699 5696 5692 5690 5687 5685 5682 5680 5678 5676 5675 5673 5672 5670 5669 5668
5670 5682 5686 5681 5697 5698 5697 5701 5699 5695 5707 5718 5717 5719 5721 5723 5722 5722 5722 5721 5719 5718 5716 5714 5711 5708 5704 5702 5699 5695 5692 5689 5686 5683 5680 5678 5676 5673 5671 5669 5668 5666 5665 5664
5662 5671 5663 5690 5710 5709 5704 5707 5709 5711 5715 5719 5721 5724 5727 5727 5725 5724 5724 5722 5721 5719 5717 5716 5713 5710 5706 5702 5698 5695 5691 5688 5686 5682 5679 5676 5673 5671 5668 5666 5664 5663 5662 5660
5653 5657 5667 5691 5706 5707 5702 5703 5716 5715 5718 5720 5722 5722 5723 5729 5728 5727 5726 5725 5723 5722 5719 5716 5713 5710 5705 5700 5696 5693 5690 5688 5685 5682 5678 5674 5671 5668 5666 5663 5661 5659 5658 5657
5650 5654 5657 5687 5710 5716 5708 5697 5718 5719 5718 5717 5715 5704 5714 5728 5728 5726 5726 5725 5723 5721 5718 5714 5712 5709 5703 5698 5695 5692 5691 5688 5685 5681 5677 5673 5670 5666 5663 5661 5659 5657 5654 5653
5649 5653 5666 5697 5709 5709 5686 5695 5720 5721 5720 5717 5713 5716 5723 5727 5726 5725 5725 5723 5722 5718 5715 5713 5710 5707 5701 5697 5695 5694 5691 5687 5683 5679 5676 5672 5668 5664 5661 5658 5655 5652 5650 5648
5646 5650 5665 5703 5702 5697 5702 5717 5719 5721 5721 5718 5718 5721 5722 5723 5722 5722 5721 5719 5718 5714 5711 5710 5708 5705 5700 5697 5697 5693 5688 5684 5680 5676 5673 5670 5665 5661 5658 5654 5650 5647 5644 5642
5663 5672 5693 5701 5705 5712 5714 5713 5717 5718 5721 5720 5718 5718 5719 5719 5718 5718 5718 5716 5714 5712 5708 5706 5705 5703 5699 5697 5694 5690 5685 5681 5677 5673 5669 5666 5662 5657 5653 5650 5646 5643 5640 5637
5664 5678 5690 5698 5704 5709 5713 5714 5718 5720 5720 5719 5717 5717 5716 5715 5714 5714 5714 5712 5711 5708 5705 5702 5701 5700 5699 5696 5692 5687 5681 5676 5672 5668 5664 5661 5658 5655 5651 5647 5643 5640 5636 5633
5662 5676 5686 5695 5700 5705 5709 5713 5715 5716 5717 5717 5716 5714 5713 5711 5711 5711 5710 5709 5708 5706 5703 5700 5698 5696 5695 5692 5688 5682 5677 5672 5668 5665 5661 5656 5653 5651 5648 5646 5643 5639 5635 5631
5661 5675 5678 5687 5698 5702 5704 5706 5709 5710 5711 5713 5713 5712 5710 5708 5708 5707 5706 5705 5703 5701 5699 5697 5694 5692 5690 5687 5684 5678 5672 5667 5664 5659 5655 5652 5648 5644 5643 5641 5639 5637 5633 5629
5672 5678 5680 5688 5693 5697 5698 5701 5704 5705 5706 5706 5708 5708 5707 5704 5702 5702 5701 5700 5699 5698 5696 5693 5690 5687 5685 5683 5679 5675 5670 5664 5659 5655 5651 5647 5643 5640 5635 5632 5631 5629 5626 5623
5670 5672 5674 5680 5684 5690 5692 5695 5697 5699 5700 5701 5701 5701 5700 5698 5697 5696 5696 5696 5695 5693 5690 5687 5685 5682 5681 5678 5675 5670 5666 5662 5656 5651 5647 5643 5639 5635 5631 5627 5622 5618 5617 5615
5663 5667 5670 5675 5678 5681 5685 5687 5688 5688 5690 5692 5694 5694 5693 5692 5691 5691 5691 5690 5689 5686 5684 5682 5679 5677 5675 5673 5669 5665 5660 5656 5651 5646 5642 5638 5634 5630 5625 5621 5616 5611 5607 5605
5657 5660 5663 5666 5669 5672 5676 5678 5679 5681 5683 5684 5685 5686 5687 5687 5686 5685 5684 5684 5681 5679 5678 5676 5674 5672 5670 5667 5663 5658 5655 5652 5647 5641 5636 5631 5627 5622 5617 5613 5608 5604 5600 5596
5647 5650 5654 5657 5661 5665 5669 5673 5675 5676 5677 5678 5679 5680 5679 5678 5677 5676 5676 5676 5676 5674 5673 5671 5668 5666 5664 5661 5657 5652 5648 5644 5641 5634 5629 5625 5620 5616 5611 5606 5601 5597 5593 5590
5646 5650 5653 5655 5657 5659 5663 5666 5668 5669 5670 5672 5672 5672 5671 5670 5669 5669 5668 5668 5666 5664 5664 5664 5662 5659 5657 5654 5650 5646 5641 5636 5632 5627 5622 5617 5613 5609 5604 5599 5595 5590 5585 5582
5638 5642 5646 5649 5652 5654 5656 5658 5661 5662 5663 5664 5664 5664 5664 5664 5663 5661 5660 5659 5657 5656 5656 5656 5655 5652 5649 5646 5643 5638 5634 5629 5624 5619 5615 5610 5605 5600 5596 5591 5587 5582 5578 5574
5629 5635 5639 5641 5644 5646 5648 5650 5652 5653 5655 5655 5655 5654 5653 5653 5653 5652 5651 5650 5650 5651 5650 5648 5646 5643 5641 5638 5635 5630 5626 5621 5616 5611 5606 5601 5596 5592 5587 5583 5579 5574 5570 5566
5620 5626 5630 5632 5635 5638 5640 5642 5643 5643 5645 5646 5646 5646 5645 5644 5644 5643 5642 5641 5642 5643 5642 5641 5638 5635 5632 5630 5626 5621 5617 5612 5608 5603 5598 5593 5588 5583 5579 5574 5570 5566 5562 5557
5610 5615 5619 5623 5625 5627 5630 5633 5634 5635 5635 5636 5636 5636 5635 5633 5633 5632 5633 5633 5633 5633 5632 5630 5629 5627 5624 5621 5616 5611 5607 5603 5599 5594 5589 5584 5580 5575 5570 5565 5561 5557 5552 5547
5602 5606 5609 5613 5615 5617 5620 5622 5624 5625 5625 5625 5626 5626 5626 5624 5623 5623 5621 5622 5623 5623 5621 5620 5620 5618 5615 5610 5605 5601 5597 5593 5589 5584 5580 5576 5571 5566 5561 5556 5552 5547 5542 5537
5592 5596 5600 5603 5605 5606 5608 5610 5612 5614 5614 5615 5616 5616 5615 5613 5612 5613 5614 5614 5613 5612 5611 5610 5609 5607 5603 5598 5594 5590 5586 5583 5579 5574 5570 5565 5560 5555 5550 5545 5541 5536 5531 5526
5582 5586 5589 5592 5594 5596 5598 5600 5600 5601 5602 5603 5603 5604 5605 5605 5604 5603 5602 5602 5602 5600 5598 5598 5597 5594 5590 5587 5583 5580 5576 5573 5568 5564 5559 5554 5549 5543 5539 5534 5529 5524 5520 5515
5572 5575 5579 5582 5585 5587 5589 5590 5590 5591 5591 5591 5590 5591 5592 5592 5591 5590 5589 5588 5588 5588 5585 5583 5582 5580 5577 5575 5572 5568 5564 5560 5555 5551 5547 5543 5537 5532 5527 5523 5518 5514 5509 5504
5562 5565 5567 5570 5573 5576 5579 5580 5581 5581 5581 5582 5580 5580 5580 5579 5579 5577 5576 5574 5573 5572 5570 5569 5568 5566 5564 5561 5559 5555 5551 5547 5543 5539 5535 5531 5526 5521 5516 5512 5507 5502 5497 5492